Regional Weather Roundup
Issued by NWS Little Rock, AR

Home | Current Version | Previous Version | Graphics & Text | Print | Product List | Glossary On
Versions: 1 2 3 4 5 6 7 8 9 10 11 12 13 14 15 16 17 18 19 20 21 22 23 24 25 26 27 28 29 30 31 32 33 34 35 36 37 38 39 40 41 42 43 44 45 46 47 48 49 50
000
ASUS44 KLZK 300805
RWRLZK

WEATHER ROUNDUP FOR ARKANSAS
NATIONAL WEATHER SERVICE LITTLE ROCK AR
300 AM CDT WED JUL 30 2014

NOTE: "FAIR" INDICATES FEW OR NO CLOUDS BELOW 12,000 FEET WITH NO
SIGNIFICANT WEATHER AND/OR OBSTRUCTIONS TO VISIBILITY.

ARZ001-003-010-029-300900-
NORTHWEST ARKANSAS

CITY           SKY/WX    TMP DP  RH WIND       PRES   REMARKS
FAYETTEVILLE   MOCLDY    63  61  93 CALM      30.09F
FORT SMITH     CLOUDY    73  68  84 NE5       30.05S
HARRISON       MOCLDY    65  63  93 CALM      30.10F
BENTONVILLE    MOCLDY    68  61  77 CALM      30.10F
ROGERS         CLOUDY    68  64  87 CALM      30.11S
SILOAM SPGS    MOCLDY    66  57  72 CALM      30.10S
HIGHFILL       CLOUDY    65  62  90 CALM      30.09F
$$

ARZ004-005-016-300900-
NORTH CENTRAL ARKANSAS

CITY           SKY/WX    TMP DP  RH WIND       PRES   REMARKS
BATESVILLE     CLEAR     66  57  72 SE3       30.09S
FLIPPIN        CLEAR     63  61  94 CALM      30.08F
MTN HOME       CLEAR     64  60  87 S5        30.08S
$$

ARZ040-041-300900-
WEST CENTRAL ARKANSAS

CITY           SKY/WX    TMP DP  RH WIND       PRES   REMARKS
MENA           CLOUDY    70  68  94 CALM      30.10S
MOUNT IDA      MOCLDY    68  66  93 CALM      30.07S
$$

ARZ009-017-025-026-028-300900-
NORTHEAST ARKANSAS

CITY           SKY/WX    TMP DP  RH WIND       PRES   REMARKS
CORNING        FAIR      64  63  94 E5        30.09F
JONESBORO      CLEAR     60  58  92 CALM      30.09S
NEWPORT        CLEAR     66  62  87 SE7       30.10S
WALNUT RIDGE   CLEAR     64  57  77 CALM      30.08S
BLYTHEVILLE    CLEAR     63  58  83 CALM      30.09F
$$

ARZ022-023-033-042-044-300900-
CENTRAL ARKANSAS

CITY           SKY/WX    TMP DP  RH WIND       PRES   REMARKS
LITTLE ROCK    MOCLDY    70  61  73 CALM      30.09R
N LITTLE ROCK    N/A     69  63  79 S3        30.09R
JACKSONVILLE   PTCLDY    64  62  93 NE1       30.09R
SEARCY         PTCLDY    64  63  97 CALM      30.10S
HOT SPRINGS    CLOUDY    70  63  78 E3        30.09S
RUSSELLVILLE   MOCLDY    68  64  87 CALM      30.07S
CLINTON        FAIR      64  63  94 CALM      30.11R
$$

ARZ036-300900-
EAST ARKANSAS

CITY           SKY/WX    TMP DP  RH WIND       PRES   REMARKS
WEST MEMPHIS   CLEAR     61  60  97 CALM      30.08S
$$

ARZ050-053-066-070-073-300900-
SOUTHWEST ARKANSAS

CITY           SKY/WX    TMP DP  RH WIND       PRES   REMARKS
ARKADELPHIA    FAIR      69  68  97 CALM      30.08S
CAMDEN         PTCLDY    66  59  77 CALM      30.07S
TEXARKANA      PTCLDY    72  63  73 SE6       30.07S
EL DORADO      CLEAR     67  62  84 CALM      30.08S
DE QUEEN       MOCLDY    70  68  93 CALM      30.05S
$$

ARZ056-057-069-300900-
SOUTHEAST ARKANSAS

CITY           SKY/WX    TMP DP  RH WIND       PRES   REMARKS
PINE BLUFF     MOCLDY    65  62  90 CALM      30.09S
STUTTGART      MOCLDY    68  59  73 SE6       30.09S
MONTICELLO     PTCLDY    65  61  87 CALM      30.08F

$$




USA.gov is the U.S. government's official web portal to all federal, state and local government web resources and services.